Hickory, NC

5:00 AM EST on February 06, 2016 (GMT -0500)
Hickory Regional

Weather History for KHKY - November, 2013

Change the Weather History Date:

Friday, November 22, 2013

  Actual Average Record
Temperature  
Mean Temperature 55 °F -  
Max Temperature 62 °F 57 °F 74 °F (1983)
Min Temperature 48 °F 34 °F 21 °F (1964)
Degree Days  
Heating Degree Days 10    
Growing Degree Days 5 (Base 50)    
Moisture  
Dew Point 51 °F    
Average Humidity 88    
Maximum Humidity 96    
Minimum Humidity 75    
Precipitation  
Precipitation 0.03 in - - ()
Sea Level Pressure  
Sea Level Pressure 30.24 in    
Wind  
Wind Speed 3 mph (SW)    
Max Wind Speed 12 mph    
Max Gust Speed 17 mph    
Visibility 7 miles    
Events Fog , Rain    
Averages and records for this station are not official NWS values.
T = Trace of Precipitation, MM = Missing Value Source: NWS Daily Summary

Daily Weather History Graph

Daily Weather History Graph

Search for Another Location

Airport or City:

Trip Planner

Search our weather history database for the weather conditions in past years. The results will help you decide how hot, cold, wet, or windy it might be!

Date:

Astronomy

Nov. 22, 2013 Rise Set
Actual Time 7:08 AM EST 5:14 PM EST
Civil Twilight 6:41 AM EST 5:42 PM EST
Nautical Twilight 6:09 AM EST 6:13 PM EST
Astronomical Twilight 5:39 AM EST 6:43 PM EST
Moon 9:42 PM EST (11/22) 10:53 AM EST (11/22)
Length of Visible Light 11h 01m
Length of Day
10h 05m
Waning Gibbous, 78% of the Moon is Illuminated
Nov 22
Waning Gibbous
Nov 25
Last Quarter
Dec 2
New
Dec 9
First Quarter
Dec 17
Full

Hourly Weather History & Observations

Time (EST) Temp. Dew Point Humidity Pressure Visibility Wind Dir Wind Speed Gust Speed Precip Events Conditions
12:40 AM 48.2 °F 46.4 °F 93% 30.39 in 7.0 mi NW 3.5 mph - N/A   Overcast
12:53 AM 48.9 °F 46.0 °F 90% 30.36 in 7.0 mi NW 3.5 mph - N/A   Overcast
1:53 AM 48.0 °F 46.9 °F 96% 30.35 in 4.0 mi Calm Calm - 0.00 in Rain Light Rain
2:53 AM 48.9 °F 46.9 °F 93% 30.34 in 4.0 mi Calm Calm - 0.00 in   Overcast
3:43 AM 48.2 °F 46.4 °F 93% 30.35 in 4.0 mi Calm Calm - N/A   Overcast
3:53 AM 48.9 °F 46.9 °F 93% 30.32 in 4.0 mi Calm Calm - N/A   Overcast
4:01 AM 48.2 °F 46.4 °F 93% 30.34 in 1.8 mi Calm Calm - N/A   Overcast
4:16 AM 48.2 °F 46.4 °F 93% 30.34 in 2.5 mi NW 3.5 mph - 0.00 in Rain Light Rain
4:32 AM 48.2 °F 46.4 °F 93% 30.34 in 4.0 mi NW 3.5 mph - 0.01 in Rain Light Rain
4:37 AM 48.2 °F 46.4 °F 93% 30.35 in 2.5 mi WNW 4.6 mph - 0.01 in Rain Light Rain
4:44 AM 48.2 °F 46.4 °F 93% 30.34 in 3.0 mi WNW 3.5 mph - 0.01 in Rain Light Rain
4:53 AM 48.9 °F 46.9 °F 93% 30.32 in 5.0 mi Calm Calm - 0.01 in   Overcast
5:53 AM 48.9 °F 46.9 °F 93% 30.30 in 6.0 mi Calm Calm - 0.02 in   Overcast
6:53 AM 48.9 °F 46.9 °F 93% 30.30 in 6.0 mi Calm Calm - N/A   Overcast
7:25 AM 48.2 °F 46.4 °F 93% 30.32 in 6.0 mi Calm Calm - N/A   Overcast
7:53 AM 50.0 °F 48.0 °F 93% 30.30 in 3.0 mi Calm Calm - N/A   Overcast
8:07 AM 50.0 °F 48.2 °F 94% 30.32 in 3.0 mi Calm Calm - N/A   Overcast
8:36 AM 50.0 °F 48.2 °F 94% 30.32 in 2.0 mi Calm Calm - N/A   Overcast
8:53 AM 50.0 °F 48.9 °F 96% 30.30 in 1.5 mi Calm Calm - N/A   Overcast
9:31 AM 51.8 °F 48.2 °F 88% 30.33 in 0.8 mi NNW 3.5 mph - N/A   Overcast
9:53 AM 51.1 °F 50.0 °F 96% 30.30 in 0.5 mi Calm Calm - N/A Fog Fog
10:08 AM 51.8 °F 50.0 °F 94% 30.32 in 1.5 mi Calm Calm - N/A   Overcast
10:45 AM 53.6 °F 51.8 °F 94% 30.31 in 2.5 mi SW 3.5 mph - N/A   Overcast
10:53 AM 54.0 °F 52.0 °F 93% 30.27 in 3.0 mi SSW 3.5 mph - N/A   Overcast
11:34 AM 55.4 °F 53.6 °F 94% 30.28 in 5.0 mi Variable 3.5 mph - N/A   Overcast
11:53 AM 57.9 °F 54.0 °F 87% 30.24 in 7.0 mi SSW 3.5 mph - N/A   Overcast
12:18 PM 60.8 °F 55.4 °F 82% 30.26 in 10.0 mi South 4.6 mph - N/A   Overcast
12:53 PM 62.1 °F 54.0 °F 75% 30.20 in 10.0 mi SSW 10.4 mph - N/A   Mostly Cloudy
1:09 PM 60.8 °F 53.6 °F 77% 30.23 in 10.0 mi SW 9.2 mph - N/A   Mostly Cloudy
1:53 PM 62.1 °F 55.0 °F 78% 30.18 in 10.0 mi SW 5.8 mph - N/A   Overcast
2:12 PM 62.6 °F 55.4 °F 77% 30.21 in 10.0 mi SSW 11.5 mph - N/A   Overcast
2:22 PM 62.6 °F 55.4 °F 77% 30.20 in 10.0 mi SSW 11.5 mph 17.3 mph N/A   Overcast
2:53 PM 62.1 °F 55.0 °F 78% 30.15 in 10.0 mi SSW 10.4 mph - N/A   Overcast
3:53 PM 61.0 °F 55.0 °F 81% 30.14 in 10.0 mi South 8.1 mph - N/A   Overcast
4:03 PM 60.8 °F 55.4 °F 82% 30.18 in 10.0 mi SW 6.9 mph - N/A   Overcast
4:10 PM 60.8 °F 55.4 °F 82% 30.18 in 10.0 mi South 6.9 mph - N/A   Overcast
4:17 PM 60.8 °F 55.4 °F 82% 30.18 in 10.0 mi SSW 9.2 mph - N/A   Overcast
4:53 PM 61.0 °F 55.0 °F 81% 30.13 in 10.0 mi SSW 9.2 mph - N/A   Overcast
5:53 PM 60.1 °F 55.0 °F 83% 30.13 in 10.0 mi SSW 3.5 mph - N/A   Overcast
6:07 PM 60.8 °F 55.4 °F 82% 30.16 in 10.0 mi SW 3.5 mph - N/A   Overcast
6:53 PM 59.0 °F 55.0 °F 87% 30.12 in 10.0 mi Calm Calm - N/A   Overcast
7:53 PM 59.0 °F 55.0 °F 87% 30.11 in 10.0 mi Calm Calm - N/A   Overcast
8:46 PM 59.0 °F 55.4 °F 88% 30.14 in 10.0 mi SSW 4.6 mph - N/A   Overcast
8:53 PM 59.0 °F 55.0 °F 87% 30.10 in 10.0 mi SSW 4.6 mph - N/A   Overcast
9:53 PM 59.0 °F 55.0 °F 87% 30.10 in 10.0 mi Calm Calm - N/A   Overcast
10:03 PM 59.0 °F 55.4 °F 88% 30.14 in 10.0 mi Calm Calm - N/A   Overcast
10:12 PM 57.2 °F 55.4 °F 94% 30.13 in 10.0 mi Calm Calm - N/A   Overcast
10:53 PM 57.9 °F 55.0 °F 90% 30.09 in 9.0 mi Calm Calm - N/A   Overcast
11:53 PM 57.0 °F 54.0 °F 89% 30.08 in 7.0 mi Calm Calm - N/A   Overcast